Date,TemperatureHighF,TemperatureAvgF,TemperatureLowF,DewpointHighF,DewpointAvgF,DewpointLowF,HumidityHigh,HumidityAvg,HumidityLow,PressureMaxIn,PressureMinIn,WindSpeedMaxMPH,WindSpeedAvgMPH,GustSpeedMaxMPH,PrecipitationSumIn
2013-3-1,36,34,31,32,31,27,93,89,82,30.05,29.98,8,2,8,0.03
2013-3-2,31,28,27,27,22,19,86,77,69,30.15,30.04,11,3,11,0.00
2013-3-3,34,28,23,22,19,14,86,70,47,30.17,30.11,10,2,10,0.00
2013-3-4,37,24,21,19,18,17,86,76,46,30.23,30.18,8,1,8,0.00
2013-3-5,46,38,28,45,33,23,96,84,48,29.99,29.59,13,5,31,0.65
2013-3-6,31,30,28,27,26,24,90,84,80,30.34,29.80,10,6,22,0.00
2013-3-7,34,32,30,27,25,22,86,75,63,30.44,30.33,3,1,6,0.01
2013-3-8,45,37,29,28,25,21,78,62,47,30.51,30.37,5,2,10,0.00
2013-3-9,63,49,33,32,27,23,73,45,24,30.37,30.09,5,2,11,0.00
2013-3-10,69,60,52,31,29,27,42,31,21,30.09,29.87,6,3,16,0.00
2013-3-11,62,48,38,52,40,30,94,76,30,29.93,29.68,12,4,20,0.81
2013-3-12,47,39,34,31,28,24,79,65,46,30.12,29.93,13,4,13,0.00
2013-3-13,37,32,27,29,20,11,84,62,43,30.41,30.09,18,6,18,0.00
2013-3-14,26,25,25,18,18,18,75,72,71,30.42,30.41,3,1,13,0.00
2013-3-15,60,49,32,40,34,26,78,59,44,30.25,29.81,6,1,13,0.00
2013-3-16,70,60,44,47,44,38,82,57,41,29.99,29.71,17,6,17,0.01
2013-3-17,43,36,34,38,34,31,96,89,81,30.11,29.94,17,4,17,0.73
2013-3-18,56,44,35,52,41,31,97,89,69,29.94,29.70,16,5,16,1.53
2013-3-19,47,39,34,32,21,5,86,53,18,30.19,29.93,17,5,17,0.00
2013-3-20,46,35,24,20,15,7,58,44,27,30.18,29.99,21,5,12,0.00
2013-3-21,24,23,22,11,11,10,61,58,56,30.07,30.06,3,0,0,0.00
2013-3-22,43,34,20,17,13,10,72,44,27,30.16,30.06,6,1,0,0.00
2013-3-23,52,43,37,27,21,16,56,41,27,30.08,29.84,9,2,0,0.00
2013-3-24,42,38,34,38,31,20,95,78,42,29.85,29.41,10,3,0,1.39
2013-3-25,35,32,30,31,28,25,91,87,77,30.03,29.53,14,7,0,0.03
2013-3-26,40,33,31,31,28,24,90,80,59,30.32,30.03,14,4,0,0.04
2013-3-27,42,36,28,26,22,19,76,58,43,30.40,30.31,11,2,0,0.00
2013-3-28,49,38,26,26,23,20,84,56,35,30.42,30.34,8,1,0,0.00
2013-3-29,54,43,32,38,28,23,84,59,30,30.37,30.26,9,1,0,0.00
2013-3-30,60,47,32,40,35,29,95,67,32,30.27,29.95,8,1,0,0.00
2013-3-31,58,50,47,47,44,38,95,79,53,29.95,29.83,10,2,0,0.17